Showing default

YIJIAN, 41899

Orbit data source: Space-Track

YIJIAN, 41899 is a payload satellite owned by SECM (CN) in SSO that was launched on Wed, 21 Dec 2016 UTC via a CHANG ZHENG 2D launch vehicle from the Jiuquan Satellite Launch Center, China (JSC). Payloads include a variety of satellites, spacecraft, and rockets equipped with specific instruments for various scientific and technological missions. These include communications satellites like Starlink; space stations such as the ISS; scientific satellites like the Hubble; Earth observation satellites from companies like Planet Labs, Umbra, and HawkEye 360; GPS; miniature CubeSats for education and research; and military/defense satellites.

Loading next visibility...
YIJIAN details
Identifier
41899, 2016-081B
Orbit
SSO
Last TLE update16 hours ago
Origin
Flag of CNSECM (CN / PRC)
ManufacturerSECM
MissionOperational Civil Imaging
Bus & MotorCX-6, Unknown motor
Mass60 kg wet, 60 kg dry
Launch date (UTC)
2016-12-21 (8 years ago)
Launch vehicle
CHANG ZHENG 2D
Launch site
Jiuquan Satellite Launch Center, China (JSC)
Object type
Payload
Rocket body
Debris
Shape & HBRBox + 2 Pan, 1 m
Radar Cross Section0.388 m², Medium (>0.1 m² and < 1m²)

Expand to show TLE details & history

TLE from 16 hours ago
0 YIJIAN
1 41899U 16081B   24336.81373421  .00002732  00000-0  58679-3 0  9996
2 41899  98.4866 308.3497 0020043 247.0277 112.8807 14.59319207422529
Epoch: 2024-12-01T19:31Z
Definitive object data (Epoch: 2024-12-01T19:31:46.635Z)
Latitude-0.00007°
Longitude-55.74116°
Altitude703.886 km
Speed7.501 km/s
True Right ascension20h 33m 23s
True Declination0° 00' 00"
Sunlit
Object was in daylight at TLE epoch
Visualization TLE readout
Latitude-55.98123°
Longitude-42.34988°
Altitude709.597 km
Speed7.504 km/s
Apparent Right ascension21h 28m 48s
Apparent Declination-48° 11' 54"
Sunlit
Object is in daylight
Visualization observer readout
Local Sidereal Time09:30:18
Azimuth178.265° S
Elevation-81.713°
Doppler factor1
Orbital elements
Apogee altitude706.64 km
Perigee altitude678.297 km
Semi-major axis7,070.606 km
Eccentricity0.0020043
Inclination98.4866°
RAAN308.3497°
Arg. of periapsis247.0277°
True anomaly113.0921°
Mean anomaly112.8807°
Eccentric anomaly112.98642°
Mean motion3.65055 °/min
BSTAR0.00058679
Orbital period98.62 mins
Loading maneuver chart data...
Loading historical data...
Loading historical data...
Loading historical data...
Loading historical data...
Loading historical data...
Loading historical data...
Loading historical data...
Other satellites on launch #81 in the year 2016 (2016-12-21 UTC)

YIJIAN Visibility forecast

Observer location: undefined°, undefined

Span
Click to sort rows by Start time (UTC) header in descending order
Start Az.
Max El. time (UTC)
Max El. Az.
Max El.
End time (UTC)
End Az.
5 mins2024-12-02 12:33:32.414Z330.221° NNW2024-12-02 12:35:32.414Z304.448° NW14.767°2024-12-02 12:38:32.414Z263.765° W
7 mins2024-12-02 21:59:32.414Z147.494° SSE2024-12-02 22:02:32.414Z92.79° ESE40.162°2024-12-02 22:06:32.414Z357.475° N
7 mins2024-12-03 11:36:32.414Z356.784° N2024-12-03 11:39:32.414Z282.529° WNW39.005°2024-12-03 11:43:32.414Z212.444° SW
|